Погода в Бирзаи

Погода в Бирзаи : погода сейчас, прогноз погоды и архив. Всё, что Вы хотите узнать о погоде в Бирзаи!

Поиск расширенной информации на нашем сайте:

Другие новости

Новости СМИ2

Главная страница сайта

Новости сайта

03.07.2017

Напоминаем, что на нашем специализированном сайте Метеоцентр.Азия вы можете получить высокодетализированные автоматические прогнозы погоды по пунктам России, СНГ и мира в авиационном формате (включающие направление и скорость ветра, видимость, явления погоды, количество и форму облачности, нижнюю и верхнюю границу облачности).


Погода в Бирзаи - сегодня

Время (UTC), дата Ветер
(°,м/с) 
Видим.   Явления Облачность Т
(°С)
Тd
(°С)
f(%) Тe
(°С)
Pmin
(гПа)
dP
(гПа)
Po
(мм)
O2
(г/м3)
Тmin Tmax R s Состояние
почвы
15 09.12.17 200 (Ю) 1-4{07}  11000 м    10/10 700 м 
[Sc]
+0.3 -2.4 82 +1  1003.8  747  300           
18 09.12.17 220 (ЮЗ) 2-5{06}  11000 м    10/10 660 м 
[Sc]
+0.2 -2.5 82 -1  1003.4  -0.4  747  300    +1.1       
21 09.12.17 170 (Ю) 2-4{05}  13000 м    9/9 840 м 
[Sc]
+0 -2.1 86 -1  1003  -0.4  746  300           
00 10.12.17 200 (Ю) 2-3{04}  9000 м  дымка  9/4 600 м верхняя 
[Sc|Cs]
-1.1 -2 94 -2  1002.2  -0.8  746  302           
03 10.12.17 220 (ЮЗ) 2-6{06}  12000 м    10/10 840 м 
[Sc]
-0.9 -2.4 90 -2  1001.6  -0.6  745  301           
06 10.12.17 160 (Ю) 3-6{06}  14000 м    10/10 840 м 
[Sc]
-1.6 -3.2 89 -4  1001.2  -0.4  745  302  -1.7        замёрзшая 
09 10.12.17 200 (Ю) 3-6{07}  9000 м  дымка  10/10 300 м 
[St]
-1.5 -2.9 90 -3  1001  -0.2  745  301           
12 10.12.17 190 (Ю) 2-5{07}  5000 м  дымка  10/10 360 м 
[St]
-0.3 -1.2 94 -1  1000.4  -0.6  745  300           
15 10.12.17 230 (ЮЗ) 2-6{06}  15000 м    9/9 500 м 
[Sc]
+0 -1.8 88 -1  1000.6  0.2  745  300           
18 10.12.17 170 (Ю) 2-4{06}  10 км    10/0 средняя 
[Ac As]
-1.6 -2.4 94 -3  1000  -0.6  744  301    +0       
21 10.12.17 150 (ЮВ) 2-5{06}  6000 м  дымка  9/9 1440 м 
[Sc]
-1.8 -2.3 96 -3  1000.1  0.1  744  301           
00 11.12.17 120 (ЮВ) 3-4{05}  5000 м  дымка  4/0 верхняя 
[Ci fib]
-3.1 -3.5 97 -5  998.2  -1.2  743  303           
03 11.12.17 110 (В) 5-7{07}  5000 м  дымка  4/0 верхняя 
[Cs]
-2.7 -3.4 95 -6  997.8  -1.1  743  302           
06 11.12.17 120 (ЮВ) 6-9{11}  11000 м    8/6 450 м верхняя 
[St|Cs]
-2.2 -3.4 91 -6  997.5  -0.3  742  301  -3.2        замёрзшая 
09 11.12.17 120 (ЮВ) 5-7{09}  13000 м    9/9 600 м 
[Sc]
-1.4 -2.8 90 -5  998.3  0.8  743  300           
12 11.12.17 120 (ЮВ) 5-8{10}  19000 м  в посл. час снег  10/10 540 м 
[Sc]
-0.9 -2.8 87 -4  997.4  -0.9  742  300      0.0  <0.5   
15 11.12.17 120 (ЮВ) 5-8{10}  18000 м  в посл. час ливневой снег  10/10 480 м 
[St]
-0.4 -2.2 88 -3  998.5  1.1  743  299           
18 11.12.17 120 (ЮВ) 5-7{08}  13000 м  {ливн. осадки}  10/10 400 м 
[St]
+0 -1.1 92 -3  999.7  1.2  744  299    +0  0.0     
21 11.12.17 120 (ЮВ) 3-5{08}  12000 м    10/10 300 м 
[St]
+0.3 -0.5 94 -1  999.8  0.2  744  299           
00 12.12.17 120 (ЮВ) 5-8{09}  9000 м  дымка  10/10 210 м 
[St]
+0.5 -0.1 96 -2  998.6  -1.2  743  299           
03 12.12.17 120 (ЮВ) 6-11{11}  19000 м    10/10 1260 м 
[Sc]
+1.6 +0.2 90 -2  996  -2.6  741  296           
06 12.12.17 120 (ЮВ) 6-9{13}  17000 м  {ливн. осадки}  10/10 330 м 
[St]
+1.9 +0.8 92 -1  994.9  -1.1  740  295  +0    0.0    влажная 
09 12.12.17 120 (ЮВ) 5-8{12}  19000 м    10/10 1260 м 
[Sc]
+2.4 +1.1 91 994  -0.9  740  295           
12 12.12.17 140 (ЮВ) 4-7{10}  19000 м  слаб. дождь  10/10 540 м 
[Sc]
+3.8 +2.3 90 +2  992.7  -1.2  739  293      0.0     
15 12.12.17 220 (ЮЗ) 4-7{10}  17000 м  {ливн. осадки}  6/0 средняя 
[Ac trans]
+5.9 +4 88 +4  993.9  1.2  740  290           
Время (UTC), дата Ветер
(°,м/с) 
Видим.   Явления Облачность Т
(°С)
Тd
(°С)
f(%) Тe
(°С)
Pmin
(гПа)
dP
(гПа)
Po
(мм)
O2
(г/м3)
Тmin Tmax R s Состояние
почвы

Для получения пояснительной информации подведите курсор к названию столбца.

ПОГОДА в Бирзаи - архив

Всё, что Вы хотите узнать о погоде в Бирзаи - удобно и подробно!

Выберите нужную дату (начиная с 1 января 2015* года) и нажмите кнопку "Найти".
Будут отображены архивные сводки погоды по пункту Бирзаи, начиная с указанной даты.


Отображать данные в формате CSV (для использования в таблицах Excel)


Внимание! Наш архив погоды предназначен исключительно для личного некоммерческого использования в познавательных целях. Если Вам необходимы официальные справки о состоянии погоды (для производственных, юридических, коммерческих и т.п. целей), обращайтесь в органы Росгидромета.

*Примечание: данная дата относится к архиву по метеостанциям СССР (Россия, СНГ, Балтия).
Архив по метеостанциям Зарубежной Европы и Азии (кроме Китая) хранится 10 дней, по другим регионам земного шара (Китай, Африка, Америка, Австралия, Океания) - 1 день.

Бирзаи - район местоположения метеостанции


Название, широта, долгота, высота метеостанции:
Бирзаи 56.2°ш. 24.8°д. 62 м над ур. моря [Литва]

Дополнительная информация

В oтличие oт бoльшинства пoгoдных сайтoв мы публикуем пoдрoбную метеoинфoрмацию в детальнoм прoфессиoнальнoм фoрмате.

Характеристики температуры и влажнoсти вoздуха измеряются на высoте 2 м в тени вдали oт зданий и деревьев.
Скoрoсть ветра измеряется на высoте 10 м (на урoвне рoста челoвека скoрoсть ветра ниже в 1.5-2 раза). Если метеoстанция нахoдится в гoрoде или в лесу, тo скoрoсть ветра занижена на 2-4 м/с пo сравнению с oткрытым местoм. Скoрoсть ветра над акватoриями крупных рек и oзёр, а также на вершинах хoлмoв на 2-5 м/с выше, чем в oбычных услoвиях.
Атмoсфернoе давление в разных тoчках местнoсти мoжет значительнo oтличаться oт давления на метеoстанции, в зависимoсти oт услoвий рельефа (при пoдъёме на 10 м давление пoнижается примернo на 1 мм рт.ст.).